Wendover, UT

11:37 AM MST on November 23, 2017 (GMT -0700)
Wendover

Weather History for KENV - November, 2012

Change the Weather History Date:

Thursday, November 29, 2012

  Actual Average Record
Temperature  
Mean Temperature 36 °F -  
Max Temperature 46 °F 40 °F 64 °F (1949)
Min Temperature 26 °F 24 °F 7 °F (1952)
Degree Days  
Heating Degree Days 29    
Moisture  
Dew Point 24 °F    
Average Humidity 63    
Maximum Humidity 75    
Minimum Humidity 46    
Precipitation  
Precipitation 0.00 in - - ()
Sea Level Pressure  
Sea Level Pressure 30.06 in    
Wind  
Wind Speed 2 mph (East)    
Max Wind Speed 9 mph    
Max Gust Speed -    
Visibility 10 miles    
Events      
Averages and records for this station are not official NWS values.
T = Trace of Precipitation, MM = Missing Value Source: NWS Daily Summary

Daily Weather History Graph

Daily Weather History Graph

Search for Another Location

Airport or City:

Trip Planner

Search our weather history database for the weather conditions in past years. The results will help you decide how hot, cold, wet, or windy it might be!

Date:

Astronomy

Nov. 29, 2012 Rise Set
Actual Time 7:39 AM MST 5:09 PM MST
Civil Twilight 7:09 AM MST 5:40 PM MST
Nautical Twilight 6:35 AM MST 6:14 PM MST
Astronomical Twilight 6:02 AM MST 6:46 PM MST
Moon 6:16 PM MST (11/29) 8:29 AM MST (11/29)
Length of Visible Light 10h 31m
Length of Day
9h 30m
Full, 99% of the Moon is Illuminated
Nov 29
Full
Dec 6
Last Quarter
Dec 13
New
Dec 19
First Quarter
Dec 28
Full

Hourly Weather History & Observations

Time (MST) Temp. Windchill Dew Point Humidity Pressure Visibility Wind Dir Wind Speed Gust Speed Precip Events Conditions
12:15 AM 30.2 °F 26.7 °F 21.2 °F 69% 30.04 in 10.0 mi East 3.5 mph - N/A   Clear
12:35 AM 30.2 °F 24.3 °F 23.0 °F 75% 30.05 in 10.0 mi East 5.8 mph - N/A   Clear
12:55 AM 30.2 °F - 21.2 °F 69% 30.05 in 10.0 mi Calm Calm - N/A   Clear
1:15 AM 28.4 °F - 19.4 °F 69% 30.05 in 10.0 mi Calm Calm - N/A   Clear
1:35 AM 30.2 °F - 21.2 °F 69% 30.06 in 10.0 mi Calm Calm - N/A   Clear
1:55 AM 28.4 °F 24.6 °F 21.2 °F 74% 30.06 in 10.0 mi East 3.5 mph - N/A   Clear
2:15 AM 28.4 °F - 21.2 °F 74% 30.07 in 10.0 mi Calm Calm - N/A   Clear
2:35 AM 28.4 °F - 19.4 °F 69% 30.07 in 10.0 mi Calm Calm - N/A   Clear
2:55 AM 28.4 °F - 19.4 °F 69% 30.07 in 10.0 mi Calm Calm - N/A   Clear
3:15 AM 28.4 °F - 21.2 °F 74% 30.07 in 10.0 mi Calm Calm - N/A   Clear
3:35 AM 30.2 °F - 23.0 °F 75% 30.07 in 10.0 mi Calm Calm - N/A   Clear
3:55 AM 26.6 °F 21.2 °F 19.4 °F 74% 30.07 in 10.0 mi WNW 4.6 mph - N/A   Clear
4:15 AM 30.2 °F 24.3 °F 23.0 °F 75% 30.07 in 10.0 mi West 5.8 mph - N/A   Clear
4:35 AM 28.4 °F 22.2 °F 21.2 °F 74% 30.07 in 10.0 mi West 5.8 mph - N/A   Clear
4:55 AM 28.4 °F - 19.4 °F 69% 30.07 in 10.0 mi Calm Calm - N/A   Clear
5:15 AM 26.6 °F - 19.4 °F 74% 30.07 in 10.0 mi Calm Calm - N/A   Clear
5:35 AM 26.6 °F - 19.4 °F 74% 30.08 in 10.0 mi Calm Calm - N/A   Clear
5:55 AM 26.6 °F 22.6 °F 19.4 °F 74% 30.08 in 10.0 mi ENE 3.5 mph - N/A   Clear
6:15 AM 26.6 °F - 19.4 °F 74% 30.08 in 10.0 mi Calm Calm - N/A   Clear
6:35 AM 28.4 °F 24.6 °F 19.4 °F 69% 30.08 in 10.0 mi NNE 3.5 mph - N/A   Clear
6:55 AM 30.2 °F - 23.0 °F 75% 30.09 in 10.0 mi Calm Calm - N/A   Clear
7:35 AM 28.4 °F - 21.2 °F 74% 30.09 in 10.0 mi Calm Calm - N/A   Clear
7:55 AM 30.2 °F 26.7 °F 21.2 °F 69% 30.10 in 10.0 mi WNW 3.5 mph - N/A   Clear
8:15 AM 32.0 °F - 24.8 °F 75% 30.10 in 10.0 mi Calm Calm - N/A   Clear
8:35 AM 30.2 °F 25.4 °F 21.2 °F 69% 30.10 in 10.0 mi NE 4.6 mph - N/A   Clear
8:55 AM 32.0 °F - 23.0 °F 69% 30.10 in 10.0 mi Calm Calm - N/A   Clear
9:15 AM 33.8 °F 26.4 °F 24.8 °F 70% 30.11 in 10.0 mi SE 9.2 mph - N/A   Clear
9:35 AM 33.8 °F 30.8 °F 24.8 °F 70% 30.11 in 10.0 mi SE 3.5 mph - N/A   Clear
9:55 AM 33.8 °F 29.6 °F 24.8 °F 70% 30.12 in 10.0 mi WNW 4.6 mph - N/A   Clear
10:15 AM 35.6 °F 31.7 °F 24.8 °F 65% 30.13 in 10.0 mi WNW 4.6 mph - N/A   Clear
10:35 AM 37.4 °F 32.8 °F 26.6 °F 65% 30.13 in 10.0 mi West 5.8 mph - N/A   Clear
10:55 AM 41.0 °F - 28.4 °F 61% 30.12 in 10.0 mi Calm Calm - N/A   Clear
11:15 AM 42.8 °F - 26.6 °F 53% 30.13 in 10.0 mi Calm Calm - N/A   Clear
11:35 AM 42.8 °F 41.1 °F 26.6 °F 53% 30.12 in 10.0 mi ENE 3.5 mph - N/A   Clear
11:55 AM 42.8 °F 40.1 °F 26.6 °F 53% 30.11 in 10.0 mi East 4.6 mph - N/A   Clear
12:15 PM 44.6 °F 43.1 °F 28.4 °F 53% 30.10 in 10.0 mi East 3.5 mph - N/A   Clear
12:35 PM 42.8 °F - 26.6 °F 53% 30.09 in 10.0 mi Calm Calm - N/A   Clear
12:55 PM 44.6 °F 41.4 °F 26.6 °F 49% 30.08 in 10.0 mi SE 5.8 mph - N/A   Clear
1:15 PM 44.6 °F - 26.6 °F 49% 30.08 in 10.0 mi Calm Calm - N/A   Clear
1:35 PM 44.6 °F - 26.6 °F 49% 30.08 in 10.0 mi Calm Calm - N/A   Clear
1:55 PM 44.6 °F 43.1 °F 26.6 °F 49% 30.06 in 10.0 mi SE 3.5 mph - N/A   Clear
2:15 PM 44.6 °F - 26.6 °F 49% 30.05 in 10.0 mi Calm Calm - N/A   Clear
2:35 PM 44.6 °F 43.1 °F 26.6 °F 49% 30.05 in 10.0 mi SE 3.5 mph - N/A   Clear
2:55 PM 46.4 °F 45.2 °F 26.6 °F 46% 30.05 in 10.0 mi SE 3.5 mph - N/A   Clear
3:15 PM 46.4 °F 44.3 °F 26.6 °F 46% 30.04 in 10.0 mi SSE 4.6 mph - N/A   Clear
3:35 PM 44.6 °F - 26.6 °F 49% 30.04 in 10.0 mi Calm Calm - N/A   Clear
3:55 PM 44.6 °F 43.1 °F 26.6 °F 49% 30.04 in 10.0 mi SW 3.5 mph - N/A   Clear
4:15 PM 44.6 °F 42.2 °F 26.6 °F 49% 30.05 in 10.0 mi West 4.6 mph - N/A   Clear
4:35 PM 44.6 °F - 26.6 °F 49% 30.05 in 10.0 mi Calm Calm - N/A   Clear
4:55 PM 42.8 °F - 26.6 °F 53% 30.03 in 10.0 mi Calm Calm - N/A   Clear
5:15 PM 42.8 °F - 26.6 °F 53% 30.04 in 10.0 mi Calm Calm - N/A   Clear
5:35 PM 41.0 °F 37.1 °F 26.6 °F 57% 30.04 in 10.0 mi West 5.8 mph - N/A   Clear
5:55 PM 41.0 °F 39.0 °F 26.6 °F 57% 30.04 in 10.0 mi West 3.5 mph - N/A   Partly Cloudy
6:15 PM 42.8 °F - 26.6 °F 53% 30.04 in 10.0 mi Calm Calm - N/A   Partly Cloudy
6:35 PM 39.2 °F 35.0 °F 26.6 °F 61% 30.02 in 10.0 mi ENE 5.8 mph - N/A   Partly Cloudy
6:55 PM 41.0 °F 39.0 °F 26.6 °F 57% 30.03 in 10.0 mi ENE 3.5 mph - N/A   Partly Cloudy
7:15 PM 39.2 °F 35.9 °F 26.6 °F 61% 30.02 in 10.0 mi SE 4.6 mph - N/A   Clear
7:35 PM 39.2 °F - 26.6 °F 61% 30.03 in 10.0 mi Calm Calm - N/A   Clear
7:55 PM 39.2 °F 37.0 °F 26.6 °F 61% 30.03 in 10.0 mi NE 3.5 mph - N/A   Partly Cloudy
8:15 PM 39.2 °F 35.0 °F 26.6 °F 61% 30.03 in 10.0 mi NE 5.8 mph - N/A   Mostly Cloudy
8:35 PM 39.2 °F 37.0 °F 26.6 °F 61% 30.03 in 10.0 mi ENE 3.5 mph - N/A   Mostly Cloudy
8:55 PM 39.2 °F 33.6 °F 26.6 °F 61% 30.02 in 10.0 mi East 8.1 mph - N/A   Partly Cloudy
9:15 PM 39.2 °F 35.9 °F 26.6 °F 61% 30.03 in 10.0 mi North 4.6 mph - N/A   Mostly Cloudy
9:35 PM 37.4 °F 34.9 °F 26.6 °F 65% 30.03 in 10.0 mi WSW 3.5 mph - N/A   Scattered Clouds
9:55 PM 37.4 °F - 26.6 °F 65% 30.04 in 10.0 mi Calm Calm - N/A   Clear
10:15 PM 37.4 °F - 26.6 °F 65% 30.03 in 10.0 mi Calm Calm - N/A   Scattered Clouds
10:35 PM 37.4 °F 32.8 °F 26.6 °F 65% 30.02 in 10.0 mi South 5.8 mph - N/A   Scattered Clouds
10:55 PM 35.6 °F - 24.8 °F 65% 30.03 in 10.0 mi Calm Calm - N/A   Scattered Clouds
11:15 PM 35.6 °F - 26.6 °F 70% 30.03 in 10.0 mi Calm Calm - N/A   Partly Cloudy
11:55 PM 35.6 °F - 24.8 °F 65% 30.02 in 10.0 mi Calm Calm - N/A   Clear